SILO ALERT LOG
| Silo ID | Alert Type | Alert Message | Silo Type | Points | Depth (mm) | Strength | Temperature (°C) | Humidity (%) | Height (mm) | Volume (㎥) | Weight (t) | Flag | Time |
|---|---|---|---|---|---|---|---|---|---|---|---|---|---|
| DJSAD02 | Humidity | 습도센서 측정값이 80% 초과 | 평 | 385 | 1138 | 4281 | 1.8 | 87.7 | 7641 | 316.316 | 199.975 | 11 | 2024-01-10 23:39:39.000 |
| DJSAD01 | Humidity | 습도센서 측정값이 80% 초과 | 평 | 437 | 1515 | 7323 | 0.9 | 88.4 | 7264 | 300.707 | 190.107 | 0 | 2024-01-10 23:39:39.000 |
| DJSAD03 | Humidity | 습도센서 측정값이 80% 초과 | 평 | 445 | 1655 | 6123 | 2 | 84.5 | 7124 | 294.946 | 186.465 | 0 | 2024-01-10 23:39:39.000 |
| DJSAD08 | Humidity | 습도센서 측정값이 80% 초과 | 평 | 0 | 7700 | 3914 | 11.7 | 81.9 | -120 | -17.075 | 0 | 29 | 2024-01-10 23:39:38.000 |
| DJSAD11 | Humidity | 습도센서 측정값이 80% 초과 | 평 | 331 | 1650 | 3256 | 1.2 | 80.5 | 5929 | 843.66 | 533.362 | 11 | 2024-01-10 23:39:35.000 |
| DJSSD04 | Temperature | 온도센서 상태 이상 | 평 | 0 | 8200 | 0 | -999 | -999 | -120 | -16.702 | 0 | 31 | 2024-01-10 23:39:34.000 |
| DJSSD05 | Temperature | 온도센서 측정값이 0도 미만 | 평 | 842 | 2547 | 4884 | -45.4 | 43.6 | 5532 | 770.066 | 486.836 | 0 | 2024-01-10 23:39:33.000 |
| DJSAD12 | Humidity | 습도센서 측정값이 80% 초과 | 평 | 0 | 7700 | 0 | 2.7 | 86.6 | -120 | -17.075 | 0 | 31 | 2024-01-10 23:39:33.000 |
| DJHNR11 | Temperature | 온도센서 측정값이 0도 미만 | 호퍼 | 233 | 3246 | 1073 | -3 | 75.1 | 7133 | 99.917 | 63.168 | 11 | 2024-01-10 23:39:32.000 |
| DJHNR01 | Humidity | 습도센서 측정값이 80% 초과 | 호퍼 | 471 | 4307 | 5012 | 3.5 | 99.9 | 11072 | 472.84 | 298.929 | 13 | 2024-01-10 23:39:32.000 |
| DJSSD01 | Humidity | 습도센서 측정값이 80% 초과 | 평 | 793 | 2574 | 4634 | 5.1 | 83.6 | 5505 | 766.242 | 484.418 | 0 | 2024-01-10 23:39:32.000 |
| DJSAD16 | Humidity | 습도센서 측정값이 80% 초과 | 평 | 89 | 6448 | 3416 | 3.7 | 80.5 | 1131 | 112.699 | 71.248 | 11 | 2024-01-10 23:39:31.000 |
| DJSSD09 | Temperature | 온도센서 측정값이 0도 미만 | 평 | 120 | 2989 | 3309 | -45.4 | 0 | 4690 | 652.76 | 412.675 | 11 | 2024-01-10 23:39:31.000 |
| DJSSD11 | Temperature | 온도센서 측정값이 0도 미만 | 호퍼 | 445 | 7405 | 147 | -3.6 | 79.9 | 3824 | 28.561 | 15.566 | 0 | 2024-01-10 23:39:31.000 |
| DJDJD04 | Humidity | 습도센서 측정값이 80% 초과 | 평 | 277 | 4200 | 4458 | 2.8 | 81.6 | 3479 | 421.531 | 266.492 | 11 | 2024-01-10 23:39:31.000 |
| DJSAD18 | Humidity | 습도센서 측정값이 80% 초과 | 평 | 115 | 1399 | 5808 | 4.1 | 80.8 | 6180 | 615.43 | 389.075 | 11 | 2024-01-10 23:39:30.000 |
| DJHNR13 | Temperature | 온도센서 측정값이 0도 미만 | 호퍼 | 2 | 5509 | 5922 | -1.5 | 70.4 | 4870 | 51.13 | 32.324 | 11 | 2024-01-10 23:39:30.000 |
| DJSAD17 | Humidity | 습도센서 측정값이 80% 초과 | 평 | 441 | 3114 | 4782 | 3.5 | 80.4 | 4465 | 444.661 | 281.115 | 0 | 2024-01-10 23:39:30.000 |
| DJHNR14 | Temperature | 온도센서 측정값이 0도 미만 | 호퍼 | 28 | 2890 | 4324 | -2 | 73 | 7489 | 107.591 | 68.019 | 11 | 2024-01-10 23:39:29.000 |
| DJHNR03 | Temperature | 온도센서 상태 이상 | 호퍼 | 0 | 15500 | 0 | -999 | -999 | -119 | 0 | 0 | 31 | 2024-01-10 23:39:24.000 |
[첫 페이지] [10009] [10010] [10011] [10012] 10013 [10014] [10015] [10016] [10017] [마지막 페이지]